Weather History for Ercan, Cyprus

Change the Weather History Date:

Sunday, December 30, 2012

  Actual Average Record
Temperature  
Mean Temperature 52 °F -  
Max Temperature 64 °F 58 °F 64 °F (2000)
Min Temperature 41 °F 42 °F 33 °F (2006)
Degree Days  
Heating Degree Days 12    
Growing Degree Days 2 (Base 50)    
Moisture  
Dew Point 44 °F    
Average Humidity 79    
Maximum Humidity 93    
Minimum Humidity 55    
Precipitation  
Precipitation 0.00 in - - ()
Sea Level Pressure  
Sea Level Pressure 30.11 in    
Wind  
Wind Speed 5 mph ()    
Max Wind Speed 9 mph    
Max Gust Speed -    
Visibility 6.2 miles    
Events      
Averages and records for this station are not official NWS values.
T = Trace of Precipitation, MM = Missing Value Source: Averaged Metar Reports

Daily Weather History Graph

Daily Weather History Graph

Search for Another Location

Airport:

Trip Planner

Search our weather history database for the weather conditions in past years. The results will help you decide how hot, cold, wet, or windy it might be!

Date:

Astronomy

Dec. 30, 2012 Rise Set
Actual Time 6:53 AM EET 4:43 PM EET
Civil Twilight 6:25 AM EET 5:11 PM EET
Nautical Twilight 5:54 AM EET 5:43 PM EET
Astronomical Twilight 5:23 AM EET 6:14 PM EET
Moon 6:49 PM EET (12/30) 7:55 AM EET (12/30)
Length of Visible Light 10h 45m
Length of Day
9h 49m
Waning Gibbous, 96% of the Moon is Illuminated
Dec 30
Waning Gibbous
Jan 5
Last Quarter
Jan 11
New
Jan 19
First Quarter
Jan 27
Full

Hourly Weather History & Observations

Time (EET) Temp. Windchill Dew Point Humidity Pressure Visibility Wind Dir Wind Speed Gust Speed Precip Events Conditions
12:20 AM 42.8 °F 39.3 °F 41.0 °F 93% 30.06 in 6.2 mi WSW 5.8 mph - N/A   Partly Cloudy
12:50 AM 42.8 °F 39.3 °F 39.2 °F 87% 30.09 in 6.2 mi WSW 5.8 mph - N/A   Partly Cloudy
1:20 AM 41.0 °F 38.0 °F 39.2 °F 93% 30.09 in 6.2 mi West 4.6 mph - N/A   Partly Cloudy
1:50 AM 42.8 °F 39.3 °F 41.0 °F 93% 30.09 in 6.2 mi West 5.8 mph - N/A   Partly Cloudy
2:20 AM 42.8 °F 39.3 °F 39.2 °F 87% 30.09 in 6.2 mi West 5.8 mph - N/A   Partly Cloudy
2:50 AM 41.0 °F 36.4 °F 39.2 °F 93% 30.09 in 6.2 mi West 6.9 mph - N/A   Partly Cloudy
3:20 AM 42.8 °F 39.3 °F 39.2 °F 87% 30.09 in 6.2 mi West 5.8 mph - N/A   Partly Cloudy
3:50 AM 41.0 °F 37.1 °F 37.4 °F 87% 30.09 in 6.2 mi WSW 5.8 mph - N/A   Partly Cloudy
4:20 AM 41.0 °F 37.1 °F 37.4 °F 87% 30.09 in 6.2 mi West 5.8 mph - N/A   Partly Cloudy
4:50 AM 41.0 °F 37.1 °F 37.4 °F 87% 30.09 in 6.2 mi WSW 5.8 mph - N/A   Partly Cloudy
5:20 AM 41.0 °F 38.0 °F 39.2 °F 93% 30.09 in 6.2 mi WSW 4.6 mph - N/A   Partly Cloudy
5:50 AM 41.0 °F 37.1 °F 39.2 °F 93% 30.09 in 6.2 mi WSW 5.8 mph - N/A   Partly Cloudy
6:20 AM 41.0 °F 35.8 °F 37.4 °F 87% 30.09 in 6.2 mi SW 8.1 mph - N/A   Partly Cloudy
6:50 AM 41.0 °F 35.2 °F 39.2 °F 93% 30.12 in 6.2 mi SW 9.2 mph - N/A   Scattered Clouds
7:20 AM 41.0 °F 39.0 °F 39.2 °F 93% 30.12 in 6.2 mi West 3.5 mph - N/A   Scattered Clouds
7:50 AM 44.6 °F 41.4 °F 41.0 °F 87% 30.12 in 6.2 mi West 5.8 mph - N/A   Scattered Clouds
8:20 AM 48.2 °F - 44.6 °F 87% 30.12 in 6.2 mi West 4.6 mph - N/A   Scattered Clouds
8:50 AM 53.6 °F - 48.2 °F 82% 30.15 in 6.2 mi West 3.5 mph - N/A   Partly Cloudy
9:20 AM 57.2 °F - 46.4 °F 67% 30.15 in 6.2 mi West 3.5 mph - N/A   Partly Cloudy
9:50 AM 59.0 °F - 46.4 °F 63% 30.15 in 6.2 mi Calm Calm - N/A   Partly Cloudy
10:20 AM 60.8 °F - 46.4 °F 59% 30.15 in 6.2 mi ENE 3.5 mph - N/A   Partly Cloudy
10:50 AM 60.8 °F - 48.2 °F 63% 30.15 in 6.2 mi ENE 4.6 mph - N/A   Partly Cloudy
11:20 AM 62.6 °F - 48.2 °F 59% 30.12 in 6.2 mi East 5.8 mph - N/A   Partly Cloudy
11:50 AM 62.6 °F - 48.2 °F 59% 30.12 in 6.2 mi ESE 4.6 mph - N/A   Partly Cloudy
12:20 PM 64.4 °F - 50.0 °F 59% 30.12 in 6.2 mi ESE 4.6 mph - N/A   Partly Cloudy
12:50 PM 60.8 °F - 50.0 °F 68% 30.12 in 6.2 mi ESE 4.6 mph - N/A   Partly Cloudy
1:20 PM 64.4 °F - 48.2 °F 56% 30.09 in 6.2 mi East 5.8 mph - N/A   Scattered Clouds
1:50 PM 62.6 °F - 46.4 °F 55% 30.09 in 6.2 mi ESE 8.1 mph - N/A   Scattered Clouds
2:20 PM 62.6 °F - 46.4 °F 55% 30.09 in 6.2 mi ESE 9.2 mph - N/A   Scattered Clouds
2:50 PM 62.6 °F - 46.4 °F 55% 30.09 in 6.2 mi ESE 8.1 mph - N/A   Partly Cloudy
3:20 PM 62.6 °F - 48.2 °F 59% 30.09 in 6.2 mi ESE 6.9 mph - N/A   Partly Cloudy
3:50 PM 60.8 °F - 48.2 °F 63% 30.09 in 6.2 mi SE 6.9 mph - N/A   Partly Cloudy
4:20 PM 57.2 °F - 48.2 °F 72% 30.09 in 6.2 mi ESE 5.8 mph - N/A   Partly Cloudy
4:50 PM 55.4 °F - 48.2 °F 77% 30.09 in 6.2 mi ESE 5.8 mph - N/A   Partly Cloudy
5:20 PM 53.6 °F - 48.2 °F 82% 30.09 in 6.2 mi SE 4.6 mph - N/A   Partly Cloudy
5:50 PM 53.6 °F - 48.2 °F 82% 30.12 in 6.2 mi SE 4.6 mph - N/A   Partly Cloudy
6:20 PM 51.8 °F - 46.4 °F 82% 30.12 in 6.2 mi Calm Calm - N/A   Partly Cloudy
6:50 PM 48.2 °F - 44.6 °F 87% 30.12 in 6.2 mi Calm Calm - N/A   Partly Cloudy
7:20 PM 51.8 °F - 46.4 °F 82% 30.12 in 6.2 mi Calm Calm - N/A   Partly Cloudy
7:50 PM 50.0 °F - 44.6 °F 82% 30.15 in 6.2 mi SW 5.8 mph - N/A   Partly Cloudy
8:20 PM 48.2 °F - 44.6 °F 87% 30.15 in 6.2 mi SW 6.9 mph - N/A   Partly Cloudy
8:50 PM 48.2 °F - 44.6 °F 87% 30.15 in - SW 5.8 mph - N/A   Clear
9:20 PM 48.2 °F - 44.6 °F 87% 30.15 in - WSW 3.5 mph - N/A   Clear
9:50 PM 46.4 °F 44.3 °F 41.0 °F 81% 30.15 in - SW 4.6 mph - N/A   Clear
10:20 PM 42.8 °F 38.6 °F 41.0 °F 93% 30.15 in - WSW 6.9 mph - N/A   Clear
10:50 PM 42.8 °F 40.1 °F 41.0 °F 93% 30.15 in - WSW 4.6 mph - N/A   Clear
11:20 PM 42.8 °F 41.1 °F 41.0 °F 93% 30.15 in - West 3.5 mph - N/A   Clear
11:50 PM 41.0 °F 37.1 °F 39.2 °F 93% 30.12 in - WSW 5.8 mph - N/A   Clear